Location: Newark
(58.8333°N, 23.5833°E)
Time: 03:15:29
(UTC+00:00)

A-11 Canister half - Pass Details

Date: 26 November 2019
Orbit: 1515 x 1685 km, 47.2° (Epoch: 06 December)

Event Time Altitude Azimuth Distance (km) Brightness Sun altitude
Rises 17:29:36 0° 257° (WSW) 4,902 12.8 -27.7°
Reaches altitude 10° 17:32:56 10° 251° (WSW) 3,929 11.9 -28.1°
Maximum altitude 17:42:11 43° 185° (S) 2,229 9.7 -29.3°
Enters shadow 17:45:03 36° 151° (SSE) 2,446 9.7 -29.7°
Drops below altitude 10° 17:51:29 10° 119° (ESE) 3,939 - -30.5°
Sets 17:54:49 0° 113° (ESE) 4,916 - -30.9°
